{"data":{"norad_id":26715,"intl_designator":"2001-009A","name":"USA 157 (MILSTAR-2 2)","alt_names":[],"object_type":"PAYLOAD","status":"ACTIVE","operator":null,"country":"US","launch_date":"2001-02-27","launch_site_code":"AFETR","launch_vehicle":null,"mission":null,"orbit_class":"UNKNOWN","rcs_meters":null,"size_class":null,"mass_kg":null,"dimensions":null,"purposes":["comms"],"wikipedia_slug":null,"has_3d_model":false,"image_url":null,"decayed_at":null,"tle_current":{"epoch":"2026-09-19T14:08:46.669920Z","epoch_age_seconds":90193,"freshness":"FRESH","line1":"1 26715U 01009A   26262.58942905  .00000110  00000+0  00000+0 0  9991","line2":"2 26715  11.6467  19.1549 0042747 179.4642 222.1082  1.00268153 33890","mean_motion":1.00268153,"eccentricity":0.0042747,"inclination_deg":11.6467,"raan_deg":19.1549,"arg_perigee_deg":179.4642,"mean_anomaly_deg":222.1082,"bstar":0,"rev_number":3389,"period_min":1436.148923577,"perigee_km":35607.367241104,"apogee_km":35967.859105637,"semimajor_km":42165.750173371,"source":"CELESTRAK","updated_at":"2026-09-20T09:00:35.118892Z"}}}